Tracking 19177 objects as of 25-May-2018
HD Live streaming from Space Station
objects crossing your sky now

METEOR 1-14

Track METEOR 1-14 now!
10-day predictions
METEOR 1-14 is classified as:


NORAD ID: 6392
Int'l Code: 1973-015A
Perigee: 857.5 km
Apogee: 892.2 km
Inclination: 81.2 °
Period: 102.3 minutes
Semi major axis: 7245 km
RCS: 4.8967 m2 (large)
Launch date: March 20, 1973
Source: Commonwealth of Independent States (former USSR) (CIS)
Launch site: PLESETSK MISSILE AND SPACE COMPLEX (PKMTR)
aabbcc
Your satellite tracking list
Your tracking list is empty




NASA's NSSDC Master Catalog

Two Line Element Set (TLE):
1  6392U 73015A   18144.43715951 +.00000167 +00000-0 +91890-4 0  9994
2  6392 081.2442 266.2013 0023911 291.3506 068.5111 14.07573551318243
Source of the keplerian elements: AFSPC